User: anonymous   Login
Location: Columbia
(38.9520°N, 92.3340°W)
Time: 19:19:28
(UTC-05:00)
Language:

SJ-11-01 - Orbit

View from above orbital plane
View from above orbital plane
View from above satellite
View from above satellite

Ground track
Ground track

The orbit data is extracted from the following two-line orbital elements,

1 36088U 09061A   14298.11011763  .00000740  00000-0  16287-3 0  5214
2 36088 098.0208 342.3983 0012259 040.1765 320.0360 14.60182753263695
Epoch (UTC): 25 October 2014 02:38:34
Eccentricity: 0.0012259
inclination: 98.0208°
perigee height: 684 km
apogee height: 701 km
right ascension of ascending node: 342.3983°
argument of perigee: 40.1765°
revolutions per day: 14.60182753
mean anomaly at epoch: 320.0360°
orbit number at epoch: 26369

The dashed part of the orbit path shows where the satellite is in the earth's shadow,  

DLR